This demonstration page uses our WeatherBlox Daily Observations layout. Learn more.

Left ArrowRight Arrow

34.74481, -87.66753

Hourly Observations for June 7, 2018

Temp ( °F °C ) Dew Point ( °F °C ) Humidity (%) Winds ( mph kmh ) Pressure ( in mb ) Visibility ( mi km ) Precip ( " mm )
12:53 am 00:53 Clear 69 20.6 66 18.9 90 90 Calm 29.95 1014 10 16 0.00 0.00
1:53 am 01:53 Clear 67 19.4 65 18.3 93 93 Calm 29.95 1014 10 16 0.00 0.00
2:53 am 02:53 Clear 67 19.4 64 17.8 91 91 Calm 29.95 1014 10 16 0.00 0.00
3:37 am 03:37 Clear with Mist and Fog 66 18.9 64 17.8 93 93 Calm 29.94 1014 2 3 0.00 0.00
3:42 am 03:42 Clear with Mist and Fog 66 18.9 64 17.8 93 93 Calm 29.94 1014 3 5 0.00 0.00
3:53 am 03:53 Clear 66 18.9 64 17.8 93 93 Calm 29.96 1015 8 13 0.00 0.00
4:53 am 04:53 Clear 65 18.3 64 17.8 97 97 Calm 29.96 1015 10 16 0.00 0.00
5:53 am 05:53 Sunny with Mist and Fog 66 18.9 64 17.8 93 93 N 3 6 29.99 1016 6 10 0.00 0.00
6:53 am 06:53 Sunny 69 20.6 66 18.9 90 90 Calm 30.01 1016 10 16 0.00 0.00
7:53 am 07:53 Sunny 73 22.8 68 20 84 84 Calm 30.04 1017 10 16 0.00 0.00
8:53 am 08:53 Sunny 79 26.1 68 20 69 69 W 3 6 30.04 1017 10 16 0.00 0.00
9:53 am 09:53 Sunny 84 28.9 66 18.9 55 55 Calm 30.06 1018 10 16 0.00 0.00
10:53 am 10:53 Sunny 88 31.1 63 17.2 43 43 VRB 5 7 30.06 1018 10 16 0.00 0.00
11:53 am 11:53 Sunny 89 31.7 63 17.2 42 42 VRB 5 7 30.04 1017 10 16 0.00 0.00
12:53 pm 12:53 Sunny 91 32.8 65 18.3 42 42 undefined N/A 30.04 1017 10 16 0.00 0.00
1:53 pm 13:53 Sunny 91 32.8 63 17.2 39 39 VRB 3 6 30.03 1017 10 16 0.00 0.00
2:53 pm 14:53 Mostly Cloudy 90 32.2 63 17.2 41 41 ENE 5 7 30.02 1017 10 16 0.00 0.00
3:53 pm 15:53 Partly Cloudy 93 33.9 63 17.2 37 37 VRB 3 6 30.00 1016 10 16 0.00 0.00
4:53 pm 16:53 Partly Cloudy 92 33.3 63 17.2 38 38 Calm 30.00 1016 10 16 0.00 0.00
5:53 pm 17:53 Mostly Sunny 93 33.9 62 16.7 36 36 NNW 5 7 30.00 1016 10 16 0.00 0.00
6:53 pm 18:53 Sunny 89 31.7 62 16.7 41 41 N 3 6 30.00 1016 10 16 0.00 0.00
7:53 pm 19:53 Sunny 85 29.4 68 20 57 57 Calm 30.00 1016 10 16 0.00 0.00
8:53 pm 20:53 Mostly Clear 80 26.7 69 20.6 69 69 Calm 30.02 1017 10 16 0.00 0.00
9:53 pm 21:53 Clear 78 25.6 71 21.7 79 79 Calm 30.04 1017 10 16 0.00 0.00
10:53 pm 22:53 Clear 76 24.4 70 21.1 82 82 Calm 30.04 1017 10 16 0.00 0.00
11:53 pm 23:53 Clear 74 23.3 70 21.1 88 88 Calm 30.05 1018 10 16 0.00 0.00

Powered by AerisWeather